STARLINK-5363, 55497

Orbit data source: Space-Track

STARLINK-5363, 55497 is a payload satellite owned by SpaceX/Seattle (US) in LEO that was launched on Thu, 02 Feb 2023 UTC via an FALCON 9 launch vehicle from the Air Force Eastern Test Range (AFETR). Payload-class satellites include a variety of spacecraft equipped with specific instruments for various scientific and technological missions. These include communications satellites like Starlink; space stations such as the ISS; scientific satellites like the Hubble; Earth observation satellites from companies like Planet Labs, Umbra, and HawkEye 360; GPS; miniature CubeSats for education and research; and military/defense satellites.

Loading next visibility...
Identifier
55497, 2023-015BA
Orbit
LEO
Country
Flag of USUS
Related business
Manufacturer
SpaceX/Seattle
Mission
Operational Commercial Communications
Bus & Motor
STARLINK, Unknown motor
Mass
305 kg wet, ~290 kg dry
Launch date (UTC)
2023-02-02 (3 years ago)
Launch vehicle
FALCON 9
Launch site
Air Force Eastern Test Range (AFETR)
Object type
Payload
Rocket body
Debris
Shape & HBR
Box + 1 Pan, 10.1 m
Radar Cross Section
13.562 m², Large (>1 m²)

Expand to show TLE details & history
Last TLE update: 5 hours ago

TLE from 5 hours ago
0 STARLINK-5363
1 55497U 23015BA  26132.83442631  .00000514  00000-0  28213-4 0  9996
2 55497  43.0069 337.6130 0001892 274.8924  85.1712 15.27579809180403
Epoch: 2026-05-12T20:01Z
TLE epoch observation values (Epoch: 2026-05-12T20:01:34.433Z)
Latitude
0.00002°
Longitude
166.61643°
Altitude
482.717 km
Speed
7.626 km/s
True Right ascension
22h 30m 27s
True Declination
0° 00' 00"
Sunlit
Object was in daylight at epoch
Visualization orbit readout
Latitude
Unknown
Longitude
Unknown
Altitude
Unknown
Speed
Unknown
Apparent Right ascension
Unknown
Apparent Declination
Unknown
Sunlit
N/A
Visualization observer readout
Local Sidereal Time
09:33:07
Azimuth
Unknown
Elevation
Unknown
Doppler factor
Unknown
Orbital elements
Apogee altitude
486.292 km
Perigee altitude
483.695 km
Semi-major axis
6,863.131 km
Eccentricity
0.00019
Inclination
43.0069°
RAAN
337.613°
Arg. of periapsis
274.8924°
True anomaly
85.1928°
Mean anomaly
85.1712°
Eccentric anomaly
85.182°
Mean motion
3.81733 °/min
Orbital period
94.31 mins
BSTAR
0.000028213
Loading maneuver chart data...
Computing Atmospheric mass density...
Loading historical data...
Loading historical data...
Loading historical data...
Loading historical data...
Loading historical data...
Loading historical data...
Loading historical data...

Documentation

Showing up to 5 results
|